SCP
0 0 -0 0 0 -0 -0 -0 -0 -0 -0 -0 -0 -0 -0 -0 -0 -0 -0 -0 -0 -0 -0 -0 -0 -0 -0 -0 -0 -0 -0 -0 -0 -0 -0 -0 -0 0 0 -0 -0 0 0
-0 0 -0 -0 0 -0 -0 -0 -0 -0 -0 -0 -0 -0 -0 -0 -0 -0 -0 -0 -0 -0 -0 -0 -0 -0 -0 -0 -0 -0 -0 -0 -0 -0 -0 -0 -0 -0 0 -0 -0 -0 -0
-0 -0 -0 -0 -0 -0 -0 -0 -0 -0 -0 -0 -0 -0 -0 -0 -0 -0 -0 -0 -0 -0 -0 -0 -0 -0 -0 -0 -0 -0 -0 -0 -0 -0 -0 -0 -0 -0 -0 -0 -0 -0 -0
-0 -0 -0 -0 -0 -0 -0 -0 -0 -0 -0 -0 -0 -0 -0 -0 -0 -0 -0 -0 -0 -0 -0 -0 -0 -0 -0 0 0 0 0 -0 -0 -0 0 0 -0 -0 -0 0 0 0 -0
-0 -0 -0 -0 -0 -0 -0 -0 -0 -0 -0 -0 -0 -0 -0 -0 -0 -0 -0 -0 -0 -0 -0 -0 -0 -0 -0 -0 -0 0 0 -0 -0 -0 0 0 0 0 0 0 0 0 0
-0 -0 -0 -0 -0 -0 -0 -0 -0 -0 -0 -0 -0 -0 -0 -0 -0 -0 -0 -0 -0 -0 0 0 -0 -0 -0 -0 -0 -0 0 -0 -0 -0 -0 0 0 0 0 -0 0 -0 0
-0 -0 -0 -0 -0 -0 -0 -0 -0 -0 -0 -0 -0 -0 -0 -0 -0 -0 0 0 -0 -0 -0 -0 -0 -0 -0 -0 -0 -0 -0 -0 -0 -0 -0 -0 -0 0 -0 -0 -0 -0 0
-0 -0 -0 -0 -0 -0 -0 -0 -0 -0 -0 -0 -0 -0 -0 -0 0 0 -0 -0 -0 0 -0 -0 -0 -0 -0 -0 -0 -0 -0 -0 -0 -0 -0 -0 0 0 -0 -0 -0 0 -0
-0 -0 -0 -0 -0 -0 -0 -0 -0 -0 -0 -0 -0 -0 -0 -0 -0 -0 0 -0 -0 0 0 -0 -0 -0 -0 -0 -0 -0 -0 -0 -0 -0 -0 -0 0 -0 -0 0 0 0 0
-0 -0 -0 -0 -0 -0 -0 -0 -0 -0 -0 -0 -0 -0 -0 -0 0 -0 0 0 -0 -0 0 -0 -0 -0 -0 -0 -0 -0 -0 -0 -0 -0 -0 -0 0 -0 -0 0 0 0 -0
-0 -0 -0 -0 -0 -0 -0 -0 -0 -0 -0 -0 -0 -0 0 0 0 0 -0 -0 -0 -0 -0 -0 -0 -0 -0 -0 -0 -0 -0 -0 -0 0 0 -0 0 -0 -0 0 0 -0 -0
-0 0 -0 -0 -0 -0 -0 -0 0 -0 -0 -0 -0 0 0 -0 0 0 -0 -0 -0 -0 -0 -0 -0 -0 -0 -0 0 -0 0 -0 0 -0 -0 -0 -0 -0 0 0 -0 -0 -0
-0 0 -0 -0 0 0 -0 -0 0 0 0 0 0 -0 0 -0 -0 0 -0 0 0 -0 0 0 -0 -0 0 0 0 0 -0 -0 0 0 -0 -1 -0 -0 -0 0 -0 -0 -0
-0 -0 -0 -0 -0 -0 0 -0 -0 0 -0 -0 -0 -0 -0 0 -0 0 0 0 0 0 0 0 0 0 -0 -0 -0 0 -0 -0 0 -0 -0 -1 -1 -1 -0 -0 -0 -0 -0
-0 -0 -0 -0 0 -0 -0 0 -0 -0 -0 0 -0 -0 -0 -0 -0 -0 0 0 0 -0 -0 0 0 -0 0 -0 -0 -0 0 -0 -0 0 0 -0 -0 -1 -1 -0 -0 -0 -0
-0 -0 -0 0 0 -0 0 0 -0 -0 -0 0 -0 -0 -0 -0 -0 0 0 -0 0 -0 0 -0 0 0 -0 -0 0 -0 0 0 -0 0 0 -0 -0 -0 -0 -0 -0 -0 -0
-0 -0 -0 -0 0 0 -0 -0 0 0 -0 0 0 -0 -0 -0 -0 -0 0 0 0 -0 -0 -0 0 -0 -0 -0 0 0 -0 0 -0 -0 -0 -0 -0 -0 -0 -0 -0 -0 -0
0 -0 -0 -0 -0 0 0 0 0 0 0 0 0 0 -0 -0 -0 -0 -0 -0 0 0 0 0 0 0 -0 -0 -0 0 0 0 0 -0 -0 -0 -0 -0 -0 -0 -0 -0 -0
-0 -0 -0 0 0 0 0 0 0 0 0 0 0 0 -0 -0 -0 -0 -0 -0 0 -0 -0 -0 -0 -0 -0 -0 0 -0 0 -0 0 -0 -0 -0 -0 -0 -0 -0 -0 -0 -0
-0 -0 -0 0 0 0 0 0 0 0 0 0 0 0 0 0 -0 0 -0 -0 -0 0 -0 0 0 0 -0 -0 0 0 0 -0 -0 0 -0 -0 -0 -0 -0 -0 0 -0 -0
-0 -0 0 0 0 0 0 0 0 0 0 0 0 0 0 0 -0 0 0 0 0 -0 -0 -0 0 0 0 -0 -0 -0 -0 -0 -0 0 -0 -0 -0 -0 -0 -0 -0 -0 -0
-0 -0 0 0 0 0 0 0 0 0 0 0 0 0 0 0 0 0 0 -0 -0 0 0 0 0 -0 -0 -0 -0 -0 -0 0 -0 0 0 0 0 0 -0 -0 0 -0 0
-0 0 0 0 0 0 0 0 0 0 0 0 0 0 0 0 0 0 0 -0 -0 0 0 -0 -0 0 0 -0 0 -0 0 0 -0 -0 0 0 0 0 0 0 0 -0 -0
0 0 0 0 0 0 0 0 0 0 0 0 0 0 0 0 0 0 0 0 0 -0 -0 0 -0 -0 0 0 0 0 0 0 0 -0 -0 -0 -0 -0 0 0 0 -0 -0
0 0 0 0 1 1 0 0 0 0 0 0 -0 0 -0 -0 -0 0 0 0 -0 0 0 0 0 0 0 0 0 0 0 -0 -0 0 0 0 -0 0 -0 -0 -0 0 0
0 0 0 -0 0 1 1 1 0 0 0 0 0 0 0 0 0 0 0 0 0 -0 -0 -0 -0 0 0 0 0 0 0 0 0 0 0 0 0 0 0 0 -0 -0 -0
Wind_Speed_500mb
46 44 44 40 40 40 38 37 38 40 41 43 44 45 43 38 37 37 34 31 30 29 29 31 32 32 32 32 31 34 37 36 34 35 40 42 37 33 31 33 35 36 38
54 48 45 42 39 39 38 37 36 36 39 40 42 43 39 35 35 33 26 21 22 23 21 21 22 24 26 28 31 32 33 31 30 31 36 40 36 29 24 24 28 33 35
54 51 46 42 39 38 38 37 36 37 36 35 36 36 32 27 24 19 14 13 16 18 15 12 15 14 14 18 22 25 22 22 27 27 27 27 26 27 19 14 22 29 30
54 52 48 43 40 37 35 37 36 38 34 32 32 29 26 22 18 17 15 15 14 15 10 5 5 7 12 14 13 20 19 13 14 21 20 17 17 24 24 8 20 27 27
51 48 45 41 39 38 35 35 35 34 33 29 26 22 16 12 11 12 11 11 12 9 7 6 7 7 10 13 16 25 15 12 10 14 21 20 14 23 23 16 22 26 26
47 47 44 41 38 36 35 34 32 30 28 25 21 18 14 11 11 11 11 10 11 11 10 12 10 11 11 16 11 26 18 25 28 19 19 18 38 31 28 27 26 26 26
42 43 42 39 37 35 33 31 29 26 24 23 19 16 12 10 10 9 9 9 8 10 11 13 12 12 11 12 16 20 22 33 37 38 27 29 37 34 34 32 29 25 25
37 40 42 37 36 34 33 31 29 27 25 23 17 12 9 7 6 8 7 9 8 8 8 8 9 11 12 14 19 24 29 22 25 31 25 46 35 35 38 32 28 27 26
34 38 36 38 37 34 32 31 29 25 21 16 13 8 5 2 2 4 6 6 3 6 3 5 9 11 12 15 16 17 21 27 25 26 33 49 40 38 36 36 32 31 27
28 30 38 38 36 32 31 29 26 23 18 12 10 7 5 2 4 5 5 10 10 9 11 10 10 10 12 14 15 17 21 29 20 24 25 40 50 43 38 37 34 30 27
31 29 36 35 33 29 21 20 21 19 13 9 7 7 8 6 2 2 2 8 9 6 7 12 10 12 15 14 13 15 19 19 20 26 40 37 41 41 41 35 30 27 26
32 24 21 26 28 26 20 17 13 12 10 6 4 14 10 12 7 6 1 9 10 16 16 11 13 12 17 17 14 14 20 21 23 28 25 24 29 38 43 39 34 29 26
37 27 17 18 23 20 18 18 8 18 12 10 8 5 8 5 10 13 4 8 17 11 16 14 20 14 15 12 14 10 20 19 25 32 28 27 29 31 39 41 42 35 28
43 38 39 35 29 30 22 18 16 11 4 9 6 1 8 5 14 6 1 16 10 14 11 16 21 19 19 12 14 14 21 17 15 27 25 24 27 33 40 46 46 42 32
51 41 42 43 41 38 27 23 18 14 18 10 18 11 6 9 3 6 5 16 6 6 10 10 18 28 21 20 18 14 14 15 15 15 19 11 16 31 47 50 52 46 36
56 49 48 40 44 36 29 23 19 20 16 12 14 19 16 19 11 18 11 16 9 10 6 12 18 23 25 25 22 21 16 9 14 19 15 2 7 11 42 52 50 44 38
56 48 37 37 43 38 28 30 22 24 29 16 18 22 19 21 19 12 13 9 9 14 12 17 11 17 20 21 23 33 25 19 17 18 11 8 3 11 22 36 40 38 34
59 54 42 47 49 30 29 38 38 32 25 27 27 25 19 17 34 17 8 4 9 4 9 11 9 15 20 25 24 29 33 33 22 19 22 17 13 10 17 20 24 26 27
65 60 58 53 45 37 31 27 46 33 37 29 28 25 24 13 19 17 9 12 1 5 6 2 8 6 17 21 25 26 29 31 25 29 36 28 20 15 14 12 14 14 14
64 59 60 44 48 39 29 32 37 33 39 31 28 29 24 21 13 8 7 9 5 5 2 4 2 4 6 16 22 29 27 31 36 33 28 40 27 24 23 18 16 19 20
68 58 57 39 41 45 36 40 41 37 38 31 27 25 26 17 16 9 10 6 8 8 8 6 4 2 3 9 17 22 27 35 38 30 36 33 27 28 26 25 24 25 24
69 59 52 46 44 46 44 39 32 28 35 37 32 30 26 24 20 16 11 17 15 13 21 20 14 8 8 12 10 9 13 25 34 39 37 45 44 39 45 33 40 32 33
67 63 56 55 50 42 43 35 30 28 29 34 37 37 32 30 28 25 17 18 15 21 19 9 11 9 4 10 8 16 7 13 28 39 43 33 50 50 41 41 38 39 36
69 65 59 57 53 45 41 41 43 38 32 32 31 42 36 34 28 23 24 21 23 23 9 13 10 9 8 9 13 12 21 20 8 19 42 39 46 47 34 39 50 42 38
58 56 65 60 55 48 42 46 44 40 33 23 28 29 39 36 27 34 24 18 17 18 17 12 12 12 14 12 14 12 16 17 18 21 15 16 30 44 49 40 41 44 36
24 44 43 52 51 55 46 43 46 37 31 36 33 39 40 33 32 32 36 30 20 14 11 16 15 14 16 16 15 14 16 14 11 11 13 9 13 21 13 23 42 50 45
Wind_Direction_500mb
160 151 147 144 140 139 136 131 128 131 130 133 139 144 146 148 140 136 131 122 113 107 105 101 102 107 114 119 119 119 115 109 108 107 108 106 101 100 99 106 108 106 108
153 150 146 144 142 140 138 132 125 131 135 139 140 143 148 147 142 139 131 123 117 113 115 114 114 115 116 121 126 125 119 120 123 119 111 113 111 105 104 112 110 110 108
153 150 146 141 142 143 143 137 131 134 137 140 143 146 151 153 160 167 168 160 145 133 122 114 127 124 125 116 128 127 121 133 131 130 124 120 119 120 126 112 119 118 115
152 150 148 146 144 144 145 144 139 135 139 137 139 140 138 138 142 145 146 162 160 145 149 131 121 146 172 196 168 133 122 136 141 143 152 137 131 138 139 142 137 122 120
153 148 148 147 149 149 149 149 145 143 142 143 145 142 140 148 161 157 157 163 161 169 191 179 235 217 187 209 220 192 200 189 188 170 165 190 191 171 159 153 146 129 125
149 149 149 150 149 152 154 153 149 149 151 151 150 149 151 157 161 162 167 184 201 215 237 242 253 253 215 219 151 198 227 202 226 222 182 196 198 186 169 158 157 141 132
145 153 150 151 151 151 153 154 153 155 162 165 170 166 165 165 167 179 194 208 222 237 238 235 230 228 227 197 200 192 205 222 229 228 225 191 185 181 173 169 167 160 153
145 160 153 151 155 157 158 158 155 156 162 171 170 169 172 186 205 209 213 213 213 216 220 205 206 203 200 199 188 189 189 189 163 184 207 179 181 184 169 182 180 174 171
163 163 163 155 155 162 162 160 158 159 165 168 169 180 193 223 234 236 213 202 193 233 236 206 203 193 195 196 193 178 165 167 166 167 182 191 187 184 177 185 186 187 183
173 174 171 171 166 161 169 166 169 170 168 169 182 190 196 130 197 236 217 196 236 242 288 230 214 196 196 190 174 167 170 171 200 184 200 195 198 189 184 186 184 188 189
170 166 182 177 176 172 166 171 181 180 180 189 210 189 178 173 84 293 250 221 227 258 310 218 188 182 189 173 165 161 167 168 168 189 189 149 179 185 185 192 196 193 192
177 158 151 174 173 165 155 164 162 177 160 103 112 163 194 163 116 180 272 211 228 253 274 237 190 176 177 164 155 178 174 170 186 206 178 175 186 201 202 205 212 205 203
173 168 170 168 152 163 172 186 166 144 140 91 98 172 167 192 126 173 184 324 256 250 246 233 205 181 169 208 174 189 175 170 181 197 193 190 193 205 207 209 215 215 213
172 175 181 184 181 181 201 215 192 165 152 127 162 141 209 125 178 175 254 306 302 236 255 219 202 192 198 206 210 192 180 172 176 196 195 199 210 217 215 213 214 214 217
181 188 185 193 188 188 188 187 207 183 168 193 215 200 146 182 258 169 216 294 266 230 208 210 200 192 205 208 204 182 195 220 216 195 198 191 218 225 217 210 209 214 222
185 189 196 196 194 190 183 191 193 186 187 203 209 182 167 204 207 205 260 298 259 243 211 213 211 189 194 204 215 191 188 195 235 196 200 137 201 203 195 200 206 217 226
186 182 191 180 182 197 208 195 174 189 198 202 193 198 191 203 227 227 233 230 113 150 151 190 192 203 199 203 203 210 200 181 221 209 199 199 112 170 188 202 212 223 224
183 189 190 181 190 215 223 227 195 207 200 192 201 214 215 212 229 243 246 274 206 224 144 181 195 185 208 206 192 187 197 196 214 241 232 222 204 191 180 191 205 214 223
182 185 183 193 211 220 226 223 214 216 211 209 190 203 209 204 221 217 165 141 311 143 102 57 157 222 201 194 205 186 193 202 220 208 225 222 214 227 209 186 196 194 206
187 196 199 218 219 219 216 206 211 212 206 195 183 195 218 221 229 215 196 136 140 130 96 325 286 128 147 190 208 194 204 211 222 234 206 229 226 231 235 232 235 243 232
190 194 201 203 194 207 205 208 215 215 210 206 186 203 216 201 182 222 248 158 146 192 221 254 301 91 332 139 181 209 213 213 225 243 234 220 237 235 247 250 251 258 247
190 196 202 206 192 201 212 224 221 224 217 212 211 203 215 207 198 220 244 216 196 205 249 247 223 235 251 221 179 213 234 224 225 230 226 227 221 232 243 249 249 251 253
193 197 204 200 208 220 213 216 222 222 220 216 208 207 202 214 221 230 240 218 223 229 243 257 196 167 226 258 265 225 212 205 220 222 230 234 230 230 244 250 250 242 242
190 198 205 206 212 219 217 221 232 230 227 227 212 213 211 206 209 218 233 240 235 231 232 214 215 206 230 242 273 248 253 253 230 250 233 235 235 232 243 251 247 264 249
181 191 197 201 210 218 219 231 236 235 233 221 206 213 207 204 208 219 232 245 247 236 229 250 257 249 258 261 252 299 265 292 267 268 296 258 251 245 257 243 248 243 246
175 202 200 210 217 221 223 234 239 232 230 223 217 207 200 206 214 218 219 243 250 220 214 262 263 263 255 261 282 266 266 268 234 252 260 338 260 298 294 252 264 241 249
Wind_Speed_850mb
46 44 44 40 40 40 38 37 38 40 41 43 44 45 43 38 37 37 34 31 30 29 29 31 32 32 32 32 31 34 37 36 34 35 40 42 37 33 31 33 35 36 38
54 48 45 42 39 39 38 37 36 36 39 40 42 43 39 35 35 33 26 21 22 23 21 21 22 24 26 28 31 32 33 31 30 31 36 40 36 29 24 24 28 33 35
54 51 46 42 39 38 38 37 36 37 36 35 36 36 32 27 24 19 14 13 16 18 15 12 15 14 14 18 22 25 22 22 27 27 27 27 26 27 19 14 22 29 30
54 52 48 43 40 37 35 37 36 38 34 32 32 29 26 22 18 17 15 15 14 15 10 5 5 7 12 14 13 20 19 13 14 21 20 17 17 24 24 8 20 27 27
51 48 45 41 39 38 35 35 35 34 33 29 26 22 16 12 11 12 11 11 12 9 7 6 7 7 10 13 16 25 15 12 10 14 21 20 14 23 23 16 22 26 26
47 47 44 41 38 36 35 34 32 30 28 25 21 18 14 11 11 11 11 10 11 11 10 12 10 11 11 16 11 26 18 25 28 19 19 18 38 31 28 27 26 26 26
42 43 42 39 37 35 33 31 29 26 24 23 19 16 12 10 10 9 9 9 8 10 11 13 12 12 11 12 16 20 22 33 37 38 27 29 37 34 34 32 29 25 25
37 40 42 37 36 34 33 31 29 27 25 23 17 12 9 7 6 8 7 9 8 8 8 8 9 11 12 14 19 24 29 22 25 31 25 46 35 35 38 32 28 27 26
34 38 36 38 37 34 32 31 29 25 21 16 13 8 5 2 2 4 6 6 3 6 3 5 9 11 12 15 16 17 21 27 25 26 33 49 40 38 36 36 32 31 27
28 30 38 38 36 32 31 29 26 23 18 12 10 7 5 2 4 5 5 10 10 9 11 10 10 10 12 14 15 17 21 29 20 24 25 40 50 43 38 37 34 30 27
31 29 36 35 33 29 21 20 21 19 13 9 7 7 8 6 2 2 2 8 9 6 7 12 10 12 15 14 13 15 19 19 20 26 40 37 41 41 41 35 30 27 26
32 24 21 26 28 26 20 17 13 12 10 6 4 14 10 12 7 6 1 9 10 16 16 11 13 12 17 17 14 14 20 21 23 28 25 24 29 38 43 39 34 29 26
37 27 17 18 23 20 18 18 8 18 12 10 8 5 8 5 10 13 4 8 17 11 16 14 20 14 15 12 14 10 20 19 25 32 28 27 29 31 39 41 42 35 28
43 38 39 35 29 30 22 18 16 11 4 9 6 1 8 5 14 6 1 16 10 14 11 16 21 19 19 12 14 14 21 17 15 27 25 24 27 33 40 46 46 42 32
51 41 42 43 41 38 27 23 18 14 18 10 18 11 6 9 3 6 5 16 6 6 10 10 18 28 21 20 18 14 14 15 15 15 19 11 16 31 47 50 52 46 36
56 49 48 40 44 36 29 23 19 20 16 12 14 19 16 19 11 18 11 16 9 10 6 12 18 23 25 25 22 21 16 9 14 19 15 2 7 11 42 52 50 44 38
56 48 37 37 43 38 28 30 22 24 29 16 18 22 19 21 19 12 13 9 9 14 12 17 11 17 20 21 23 33 25 19 17 18 11 8 3 11 22 36 40 38 34
59 54 42 47 49 30 29 38 38 32 25 27 27 25 19 17 34 17 8 4 9 4 9 11 9 15 20 25 24 29 33 33 22 19 22 17 13 10 17 20 24 26 27
65 60 58 53 45 37 31 27 46 33 37 29 28 25 24 13 19 17 9 12 1 5 6 2 8 6 17 21 25 26 29 31 25 29 36 28 20 15 14 12 14 14 14
64 59 60 44 48 39 29 32 37 33 39 31 28 29 24 21 13 8 7 9 5 5 2 4 2 4 6 16 22 29 27 31 36 33 28 40 27 24 23 18 16 19 20
68 58 57 39 41 45 36 40 41 37 38 31 27 25 26 17 16 9 10 6 8 8 8 6 4 2 3 9 17 22 27 35 38 30 36 33 27 28 26 25 24 25 24
69 59 52 46 44 46 44 39 32 28 35 37 32 30 26 24 20 16 11 17 15 13 21 20 14 8 8 12 10 9 13 25 34 39 37 45 44 39 45 33 40 32 33
67 63 56 55 50 42 43 35 30 28 29 34 37 37 32 30 28 25 17 18 15 21 19 9 11 9 4 10 8 16 7 13 28 39 43 33 50 50 41 41 38 39 36
69 65 59 57 53 45 41 41 43 38 32 32 31 42 36 34 28 23 24 21 23 23 9 13 10 9 8 9 13 12 21 20 8 19 42 39 46 47 34 39 50 42 38
58 56 65 60 55 48 42 46 44 40 33 23 28 29 39 36 27 34 24 18 17 18 17 12 12 12 14 12 14 12 16 17 18 21 15 16 30 44 49 40 41 44 36
24 44 43 52 51 55 46 43 46 37 31 36 33 39 40 33 32 32 36 30 20 14 11 16 15 14 16 16 15 14 16 14 11 11 13 9 13 21 13 23 42 50 45
Wind_Direction_850mb
160 151 147 144 140 139 136 131 128 131 130 133 139 144 146 148 140 136 131 122 113 107 105 101 102 107 114 119 119 119 115 109 108 107 108 106 101 100 99 106 108 106 108
153 150 146 144 142 140 138 132 125 131 135 139 140 143 148 147 142 139 131 123 117 113 115 114 114 115 116 121 126 125 119 120 123 119 111 113 111 105 104 112 110 110 108
153 150 146 141 142 143 143 137 131 134 137 140 143 146 151 153 160 167 168 160 145 133 122 114 127 124 125 116 128 127 121 133 131 130 124 120 119 120 126 112 119 118 115
152 150 148 146 144 144 145 144 139 135 139 137 139 140 138 138 142 145 146 162 160 145 149 131 121 146 172 196 168 133 122 136 141 143 152 137 131 138 139 142 137 122 120
153 148 148 147 149 149 149 149 145 143 142 143 145 142 140 148 161 157 157 163 161 169 191 179 235 217 187 209 220 192 200 189 188 170 165 190 191 171 159 153 146 129 125
149 149 149 150 149 152 154 153 149 149 151 151 150 149 151 157 161 162 167 184 201 215 237 242 253 253 215 219 151 198 227 202 226 222 182 196 198 186 169 158 157 141 132
145 153 150 151 151 151 153 154 153 155 162 165 170 166 165 165 167 179 194 208 222 237 238 235 230 228 227 197 200 192 205 222 229 228 225 191 185 181 173 169 167 160 153
145 160 153 151 155 157 158 158 155 156 162 171 170 169 172 186 205 209 213 213 213 216 220 205 206 203 200 199 188 189 189 189 163 184 207 179 181 184 169 182 180 174 171
163 163 163 155 155 162 162 160 158 159 165 168 169 180 193 223 234 236 213 202 193 233 236 206 203 193 195 196 193 178 165 167 166 167 182 191 187 184 177 185 186 187 183
173 174 171 171 166 161 169 166 169 170 168 169 182 190 196 130 197 236 217 196 236 242 288 230 214 196 196 190 174 167 170 171 200 184 200 195 198 189 184 186 184 188 189
170 166 182 177 176 172 166 171 181 180 180 189 210 189 178 173 84 293 250 221 227 258 310 218 188 182 189 173 165 161 167 168 168 189 189 149 179 185 185 192 196 193 192
177 158 151 174 173 165 155 164 162 177 160 103 112 163 194 163 116 180 272 211 228 253 274 237 190 176 177 164 155 178 174 170 186 206 178 175 186 201 202 205 212 205 203
173 168 170 168 152 163 172 186 166 144 140 91 98 172 167 192 126 173 184 324 256 250 246 233 205 181 169 208 174 189 175 170 181 197 193 190 193 205 207 209 215 215 213
172 175 181 184 181 181 201 215 192 165 152 127 162 141 209 125 178 175 254 306 302 236 255 219 202 192 198 206 210 192 180 172 176 196 195 199 210 217 215 213 214 214 217
181 188 185 193 188 188 188 187 207 183 168 193 215 200 146 182 258 169 216 294 266 230 208 210 200 192 205 208 204 182 195 220 216 195 198 191 218 225 217 210 209 214 222
185 189 196 196 194 190 183 191 193 186 187 203 209 182 167 204 207 205 260 298 259 243 211 213 211 189 194 204 215 191 188 195 235 196 200 137 201 203 195 200 206 217 226
186 182 191 180 182 197 208 195 174 189 198 202 193 198 191 203 227 227 233 230 113 150 151 190 192 203 199 203 203 210 200 181 221 209 199 199 112 170 188 202 212 223 224
183 189 190 181 190 215 223 227 195 207 200 192 201 214 215 212 229 243 246 274 206 224 144 181 195 185 208 206 192 187 197 196 214 241 232 222 204 191 180 191 205 214 223
182 185 183 193 211 220 226 223 214 216 211 209 190 203 209 204 221 217 165 141 311 143 102 57 157 222 201 194 205 186 193 202 220 208 225 222 214 227 209 186 196 194 206
187 196 199 218 219 219 216 206 211 212 206 195 183 195 218 221 229 215 196 136 140 130 96 325 286 128 147 190 208 194 204 211 222 234 206 229 226 231 235 232 235 243 232
190 194 201 203 194 207 205 208 215 215 210 206 186 203 216 201 182 222 248 158 146 192 221 254 301 91 332 139 181 209 213 213 225 243 234 220 237 235 247 250 251 258 247
190 196 202 206 192 201 212 224 221 224 217 212 211 203 215 207 198 220 244 216 196 205 249 247 223 235 251 221 179 213 234 224 225 230 226 227 221 232 243 249 249 251 253
193 197 204 200 208 220 213 216 222 222 220 216 208 207 202 214 221 230 240 218 223 229 243 257 196 167 226 258 265 225 212 205 220 222 230 234 230 230 244 250 250 242 242
190 198 205 206 212 219 217 221 232 230 227 227 212 213 211 206 209 218 233 240 235 231 232 214 215 206 230 242 273 248 253 253 230 250 233 235 235 232 243 251 247 264 249
181 191 197 201 210 218 219 231 236 235 233 221 206 213 207 204 208 219 232 245 247 236 229 250 257 249 258 261 252 299 265 292 267 268 296 258 251 245 257 243 248 243 246
175 202 200 210 217 221 223 234 239 232 230 223 217 207 200 206 214 218 219 243 250 220 214 262 263 263 255 261 282 266 266 268 234 252 260 338 260 298 294 252 264 241 249